Retour au catalogue

COSMOS 970 DEB

ActifLEO
NORAD 10890·DEBRIS·🇷🇺 Russia

Lancé Dec 21, 1977 depuis Baikonur Cosmodrome

Loading…

Prochains Passages (prochaines 24 heures)

TLE

FraisSource: Space-Track

Époque: Sep 14, 2026, 08:36 UTC

1 10890U 77121AM  26257.35885310  .00000148  00000-0  23608-3 0  9996
2 10890  65.7788  20.2373 0141197 303.4483  87.4932 13.71438136431745

Suivez COSMOS 970 DEB en temps réel avec AllMySat

Download on the App Store